#timestamp,LO_Frequency,Hit,StdDev 
1647118815.7,286046998.9,N
1647118835.5,286046998.5,N
1647118855.3,286047000.3,N
1647118875.2,286047000.1,N
1647118895.0,286047000.9,N
1647118895.9,286047000.9,N
1647118915.8,286046999.9,N
1647118935.6,286047000.2,N
1647118955.4,286047000.4,N
1647118975.3,286046999.7,N
1647118995.1,286047002.7,Y
1647119015.8,286047002.7,P
1647119035.7,286047001.0,N
1647119055.5,286047000.9,N
1647119075.4,286047001.1,N
1647119095.2,286047002.8,N
1647119115.0,286047001.5,N
1647119115.9,286047001.5,N
1647119135.8,286047002.6,N
1647119155.6,286047000.9,N
1647119175.5,286046998.4,N
1647119195.3,286046998.6,N
1647119215.1,286046998.3,N
1647119235.9,286047001.2,N
1647119255.7,286047001.0,N
1647119275.6,286046999.8,N
1647119295.4,286047002.3,N
1647119315.2,286047000.6,N
1647119335.1,286047000.7,N
1647119336.0,286047000.7,N
1647119355.8,286046999.8,N
1647119375.6,286047000.0,N
1647119395.5,286046998.7,N
1647119415.3,286046999.9,N
1647119435.2,286046999.7,N
1647119455.9,286047000.5,N
1647119475.7,286047001.1,N
1647119495.6,286046999.9,N
1647119515.4,286046998.3,N
1647119535.2,286047000.8,N
1647119555.1,286046999.9,N
1647119556.0,286046999.9,N
1647119575.8,286046998.6,N
1647119595.7,286047000.9,N
1647119615.5,286047000.4,N
1647119635.3,286046998.7,N
1647119655.2,286046999.5,N
1647119675.0,286046997.0,N
1647119675.9,286046997.0,N
1647119695.8,286046996.8,N
1647119715.6,286046999.4,N
1647119735.4,286046998.3,N
1647119755.3,286046998.8,N
1647119775.1,286047000.2,N
1647119795.8,286046999.7,N
1647119815.7,286047000.7,N
1647119835.5,286047000.6,N
1647119855.4,286046998.1,N
1647119875.2,286046999.7,N
1647119895.0,286047001.8,N
1647119895.9,286047001.8,N
1647119915.8,286046999.7,N
1647119935.6,286047000.7,N
1647119955.5,286047000.5,N
1647119975.3,286047001.0,N
1647119995.1,286046998.1,N
1647120015.9,286046999.3,N
1647120035.7,286046999.0,N
1647120055.5,286046999.4,N
1647120075.4,286046996.7,N
1647120095.2,286046996.6,N
1647120115.1,286046998.5,N
1647120116.0,286046998.5,N
1647120135.8,286046999.6,N
1647120155.6,286047001.2,N
1647120175.5,286046999.4,N
1647120195.3,286046996.5,N
1647120215.1,286046998.9,N
1647120235.9,286046998.1,N
1647120255.7,286046999.9,N
1647120275.6,286047000.3,N
1647120295.4,286047001.9,N
1647120315.2,286047000.6,N
1647120335.1,286047002.4,N
1647120336.0,286047002.4,N
1647120355.8,286046998.3,N
1647120375.6,286047000.6,N
1647120395.5,286046998.7,N
1647120415.3,286046999.1,N
1647120435.2,286046998.1,N
1647120455.0,286047002.1,N
1647120455.9,286047002.1,N
1647120475.8,286047000.1,N
1647120495.6,286047002.6,N
1647120515.4,286047002.3,N
1647120535.3,286047000.0,N
1647120555.1,286047002.3,N
1647120575.9,286046999.1,N
1647120595.7,286046998.4,N
1647120615.5,286046998.1,N
1647120635.4,286047000.8,N
1647120655.2,286047002.2,N
1647120675.0,286047001.9,N
1647120675.9,286047001.9,N
1647120695.8,286047000.0,N
1647120715.6,286047001.9,N
1647120735.5,286047001.9,N
1647120755.3,286047002.1,N
1647120775.1,286047002.1,N
1647120795.9,286047002.4,N
1647120845.7,286047001.6,E
1647120855.7,286047002.4,N
1647120875.5,286047000.2,P
1647120895.3,286046999.7,N
1647120915.2,286046998.1,N
1647120935.0,286047000.5,N
1647120935.9,286047000.5,N
1647120955.8,286046998.2,N
1647120975.6,286046999.0,N
1647120995.4,286047000.7,N
1647121015.3,286047001.0,N
1647121035.1,286047000.2,N
1647121055.8,286047004.4,Y
1647121075.7,286047003.8,P
1647121095.5,286047002.7,N
1647121115.4,286047002.6,N
1647121135.2,286047002.1,N
1647121155.0,286047001.9,N
1647121155.9,286047001.9,N
1647121175.8,286047001.7,N
1647121195.6,286047002.0,N
1647121215.4,286047002.2,N
1647121235.3,286047002.1,N
1647121255.1,286047000.5,N
1647121275.9,286046998.4,N
1647121295.7,286046998.1,N
1647121315.5,286047001.1,N
1647121335.4,286046999.8,N
1647121355.2,286047000.5,N
1647121375.0,286047001.2,N
1647121376.0,286047001.2,N
1647121395.8,286047001.0,N
1647121415.6,286046999.8,N
1647121435.5,286047002.8,N
1647121455.3,286047000.4,N
1647121475.1,286047000.4,N
1647121495.9,286047000.1,N
1647121515.7,286047000.9,N
1647121535.6,286046998.1,N
1647121555.4,286046996.5,N
1647121575.2,286046999.2,N
1647121595.1,286046998.2,N
1647121596.0,286046998.2,N
1647121615.8,286047002.8,N
1647121635.7,286046998.5,N
1647121655.5,286046999.4,N
1647121675.3,286047001.2,N
1647121695.2,286047002.7,N
1647121715.9,286047000.7,N
1647121735.7,286047001.2,N
1647121755.6,286047000.2,N
1647121775.4,286046999.8,N
1647121795.3,286046999.8,N
1647121815.1,286047001.1,N
1647121816.0,286047001.1,N
1647121835.8,286047001.4,N
1647121855.7,286047001.4,N
1647121875.5,286047002.3,N
1647121895.4,286047000.6,N
1647121915.2,286047001.0,N
1647121935.0,286046998.2,N
1647121935.9,286046998.2,N
1647121955.8,286046999.4,N
1647121975.6,286046998.4,N
1647121995.5,286047001.0,N
1647122015.3,286047001.1,N
1647122035.1,286046998.4,N
1647122055.9,286046998.1,N
1647122075.7,286046998.2,N
1647122095.5,286046994.9,Y
1647122115.4,286046995.9,P
1647122135.2,286046993.3,P
1647122155.1,286046997.9,N
1647122156.0,286046997.9,N
1647122175.8,286046995.2,N
1647122195.6,286046997.0,N
1647122215.5,286046996.8,N
1647122235.3,286046998.3,N
1647122255.2,286047000.6,N
1647122275.9,286047000.9,N
1647122295.7,286046998.3,N
1647122315.6,286046999.3,N
1647122335.4,286046996.6,N
1647122355.2,286046997.3,N
1647122375.1,286046996.9,N
1647122376.0,286046996.9,N
1647122395.8,286046997.0,N
